FW4829 Weather Reports


Display with metric or nautical units.
time (UTC)temp
F
wind
direction
speed
MPH
gust
MPH
rain 1hr
in
rain 24hr
in
rain mn
in
humidity
%
barometer
mb
20260503211540 83 315 3.0 7.0 0.00 0.00 0.00 36 1011.0
20260503210037 82 33 2.0 9.0 0.00 0.00 0.00 34 1011.1
20260503204533 82 306 4.0 9.0 0.00 0.00 0.00 39 1011.3
20260503203031 81 326 3.0 7.0 0.00 0.00 0.00 41 1011.3
20260503201525 80 34 3.0 9.0 0.00 0.00 0.00 43 1011.5
20260503200020 79 319 5.0 9.0 0.00 0.00 0.00 42 1011.7
20260503194517 78 6 2.0 7.0 0.00 0.00 0.00 47 1011.8
20260503193013 78 314 3.0 7.0 0.00 0.00 0.00 47 1012.0
20260503191507 77 13 2.0 9.0 0.00 0.00 0.00 51 1012.1
20260503190002 75 351 2.0 6.0 0.00 0.00 0.00 52 1012.2
20260503184559 74 343 2.0 7.0 0.00 0.00 0.00 56 1012.3
20260503183054 73 327 3.0 10.0 0.00 0.00 0.00 58 1012.4
20260503181548 72 327 2.0 8.0 0.00 0.00 0.00 59 1012.5
20260503180056 71 353 3.0 7.0 0.00 0.00 0.00 61 1012.6
20260503174539 70 21 2.0 7.0 0.00 0.00 0.00 64 1012.7
20260503173038 68 40 3.0 8.0 0.00 0.00 0.00 64 1012.7
20260503171535 67 342 2.0 8.0 0.00 0.00 0.00 66 1012.7
20260503140108 57 31 2.0 5.0 0.00 0.00 0.00 81 1012.8
20260503081548 61 341 4.0 10.0 0.00 0.00 0.00 78 1013.7
20260503071635 61 26 4.0 10.0 0.00 0.00 0.00 81 1013.6
20260503054524 61 330 3.0 10.0 0.00 0.00 0.00 81 1013.5
20260503053020 61 18 2.0 6.0 0.00 0.00 0.00 81 1014.0
20260503051517 62 2 1.0 3.0 0.00 0.00 0.00 80 1014.1
20260503050023 64 63 0.0 2.0 0.00 0.00 0.00 74 1014.1
20260503044517 63 316 3.0 4.0 0.00 0.00 0.00 77 1013.9
20260503043010 61 275 0.0 3.0 0.00 0.00 0.00 82 1014.1
20260503041509 62 184 1.0 4.0 0.00 0.00 0.00 82 1014.3
20260503040007 61 211 1.0 4.0 0.00 0.00 0.00 81 1014.1
20260503034505 61 333 1.0 4.0 0.00 0.00 0.00 82 1013.9
20260503033004 61 181 1.0 4.0 0.00 0.00 0.00 82 1013.7
20260503031502 62 176 2.0 8.0 0.00 0.00 0.00 81 1013.8
20260503030058 63 165 4.0 7.0 0.00 0.00 0.00 79 1013.7
20260503024557 64 190 4.0 10.0 0.00 0.00 0.00 76 1013.5
20260503023055 66 221 2.0 10.0 0.00 0.00 0.00 74 1013.5
20260503021553 67 176 3.0 5.0 0.00 0.00 0.00 73 1013.5
20260503020055 68 160 1.0 4.0 0.00 0.00 0.00 71 1013.1
20260503014605 70 203 1.0 4.0 0.00 0.00 0.00 71 1012.9
20260503013046 69 269 0.0 3.0 0.00 0.00 0.00 72 1012.7
20260503011542 69 153 2.0 3.0 0.00 0.00 0.00 72 1012.8
20260503010039 68 167 0.0 3.0 0.00 0.00 0.00 74 1012.7
20260503004537 68 207 0.0 2.0 0.00 0.00 0.00 73 1012.6
20260503003035 67 204 0.0 4.0 0.00 0.00 0.00 75 1012.7
20260503001543 67 159 1.0 4.0 0.00 0.00 0.00 74 1012.7
20260503000031 67 267 2.0 5.0 0.00 0.00 0.00 75 1012.8
20260502234536 66 219 0.0 4.0 0.00 0.00 0.00 75 1012.9
20260502233027 67 219 1.0 4.0 0.00 0.00 0.00 74 1013.1
20260502231523 69 173 0.0 3.0 0.00 0.00 0.00 71 1013.2
20260502230023 67 276 1.0 4.0 0.00 0.00 0.00 70 1013.2
20260502224517 67 308 3.0 6.0 0.00 0.00 0.00 70 1013.4
20260502223014 66 18 1.0 4.0 0.00 0.00 0.00 72 1013.8
20260502221505 64 294 2.0 9.0 0.00 0.00 0.00 73 1014.0
20260502220100 63 9 1.0 4.0 0.00 0.00 0.00 75 1014.3
20260502214557 62 339 1.0 4.0 0.00 0.00 0.00 76 1014.4
20260502213055 62 347 2.0 7.0 0.00 0.00 0.00 75 1014.5